Regional Weather Roundup
Issued by NWS

Home | Current Version | Previous Version | Text Only | Print | Product List | Glossary On
Versions: 1 2 3 4 5 6 7 8 9 10 11 12 13 14 15 16 17 18 19 20 21 22 23 24 25 26 27 28 29 30 31 32 33 34 35 36 37 38 39 40 41 42 43 44 45 46 47 48 49 50
000
ASUS43 KMKX 210400
RWRWI

WISCONSIN REGIONAL WEATHER ROUNDUP
NATIONAL WEATHER SERVICE MILWAUKEE/SULLIVAN WI
1000 PM CST TUE FEB 20 2018

NOTE: "FAIR" INDICATES FEW OR NO CLOUDS BELOW 12,000 FEET WITH NO
SIGNIFICANT WEATHER AND/OR OBSTRUCTIONS TO VISIBILITY.

WIZ001-002-006>008-014>016-023>028-210500-
NORTHWEST WISCONSIN

CITY           SKY/WX    TMP DP  RH WIND       PRES   REMARKS
SUPERIOR ARPT  FAIR       9   4  78 W7        30.22R WCI  -2
ASHLAND        FAIR      10   5  80 SW9       30.19R WCI  -3
HAYWARD        FAIR      12   6  77 CALM      30.18R
SIREN          FAIR      11   5  74 W8        30.23R WCI   0
CUMBERLAND     FAIR      12   5  73 W10       30.19R WCI  -1
RICE LAKE      FAIR      14   8  79 W8        30.21R WCI   2
CHETEK         FAIR      14   8  76 W7        30.21R WCI   4
LADYSMITH      FAIR      15  10  80 W9        30.18R WCI   4
EAU CLAIRE     NOT AVBL
MENOMONIE      FAIR      16   9  74 W9        30.25R WCI   5
NEW RICHMOND   FAIR      11   3  70 W8        30.25R WCI   0
OSCEOLA        FAIR      13   4  67 W13       30.29R WCI  -2
$$

WIZ003>005-009-010-017-018-210500-
NORTH CENTRAL WISCONSIN

CITY           SKY/WX    TMP DP  RH WIND       PRES   REMARKS
MANITOWISH WTR FLURRIES  14  11  89 W7        30.09R WCI   4
ARBOR VITAE    FLURRIES  17  13  84 NW7       30.09R WCI   7
WOODRUFF       FLURRIES  17  13  84 NW7       30.09R WCI   7
RHINELANDER    CLOUDY    17  14  88 W12       30.10R WCI   4
EAGLE RIVER    LGT SNOW  16  13  86 NW12      30.08R WCI   3
LAND O LAKES   FLURRIES  16  13  86 NW12      30.08R WCI   3
PHILLIPS       CLOUDY    14  11  89 W3        30.12R
TOMAHAWK       FLURRIES  17  13  86 W9G17     30.12R WCI   5
MEDFORD        MOCLDY    15  10  81 W7        30.13R WCI   5
MERRILL        MIX PCPN  18  14  84 NW13G20   30.14R WCI   4
$$

WIZ029-030-035-036-043>047-210500-
CENTRAL WISCONSIN

CITY           SKY/WX    TMP DP  RH WIND       PRES   REMARKS
WAUSAU         CLOUDY    19  15  84 W14       30.13R WCI   6
MOSINEE        CLOUDY    18  16  93 W14G20    30.15R WCI   4
MARSHFIELD     FAIR      17  12  80 NW14      30.16R WCI   3
STEVENS POINT  CLOUDY    19  15  88 W9        30.15R WCI   7
WAUPACA        MOCLDY    26  19  75 W13G24    30.15R WCI  15
WAUTOMA        CLOUDY    24  19  81 W18       30.17R WCI  10
WISC RAPIDS    CLOUDY    21  14  74 NW15      30.18R WCI   8
CAMP DOUGLAS   CLOUDY    21  18  86 NW15G22   30.19R WCI   8
$$

WIZ011>013-019>022-031-037>040-048>050-210500-
NORTHEAST WISCONSIN

CITY           SKY/WX    TMP DP  RH WIND       PRES   REMARKS
ANTIGO         CLOUDY    21  18  89 NW8       30.08R WCI  11
SHAWANO        CLOUDY    28  23  81 W8        30.12R WCI  20
OCONTO         CLOUDY    29  24  81 NW8G16    30.09R WCI  21
STURGEON BAY   CLOUDY    29  26  89 W13       30.09R WCI  19
GREEN BAY      CLOUDY    28  22  78 W12       30.12R WCI  18
MANITOWOC      CLOUDY    29  23  78 NW16      30.12R WCI  17
APPLETON       NOT AVBL
CLINTONVILLE   CLOUDY    26  20  79 W13       30.13R WCI  15
OSHKOSH        CLOUDY    27  21  78 W13       30.13R WCI  16
$$

WIZ032>034-041-042-053>061-210500-
SOUTHWEST WISCONSIN

CITY           SKY/WX    TMP DP  RH WIND       PRES   REMARKS
LA CROSSE      CLOUDY    20  13  74 NW12      30.27R WCI   8
SPARTA         CLOUDY    20  17  85 W7        30.24R WCI  11
VIROQUA        CLOUDY    19  17  93 NW10      30.19R WCI   7
BOSCOBEL       CLOUDY    24  16  71 W10       30.23R WCI  14
PRAIRIE DU CHI FAIR      21  12  68 NW15      30.25R WCI   8
PLATTEVILLE    CLOUDY    24  22  89 NW13      30.18R WCI  13
$$

WIZ056-057-062-063-064-067-068-210500-
SOUTH CENTRAL WISCONSIN

CITY           SKY/WX    TMP DP  RH WIND       PRES   REMARKS
REEDSBURG      CLOUDY    23  19  85 W13       30.18R WCI  11
BARABOO/DELLS  CLOUDY    24  19  80 NW10      30.16R WCI  14
LONE ROCK      NOT AVBL
MINERAL POINT  FAIR      27  23  86 NW12G21   30.15R WCI  16
MADISON        CLOUDY    27  20  75 NW14G25   30.16R WCI  16
MIDDLETON      CLOUDY    29  23  80 NW14      30.16R WCI  18
WATERTOWN      CLOUDY    28  26  89 NW12G17   30.13R WCI  18
MONROE         CLOUDY    28  23  80 NW15      30.13S WCI  17
JANESVILLE     CLOUDY    30  30 100 NW13G20   30.13  WCI  20
$$

WIZ051-052-058>065-066-070>072-210500-
SOUTHEAST WISCONSIN

CITY           SKY/WX    TMP DP  RH WIND       PRES   REMARKS
MILWAUKEE      CLOUDY    33  28  81 NW14      30.12R WCI  23
WAUKESHA       CLOUDY    28  27  93 W15G23    30.13R WCI  17
MILWAUKEE/TIMM CLOUDY    32  25  74 NW13      30.13R WCI  22
RACINE         CLOUDY    34  30  85 NW7       30.13R WCI  28
BURLINGTON     CLOUDY    32  28  84 NW14      30.12R WCI  22
KENOSHA        CLOUDY    34  29  82 NW13      30.12R WCI  25
FOND DU LAC    CLOUDY    28  21  75 NW13      30.14R WCI  17
SHEBOYGAN      CLOUDY    29  24  82 NW12G22   30.12R WCI  19
WEST BEND      CLOUDY    30  27  86 NW15G21   30.12R WCI  19
JUNEAU         CLOUDY    27  22  82 W9G17     30.15R WCI  18
$$

LSZ147-162-210500-
LAKE SUPERIOR

STATION/POSITION TIME  TEMP    WIND        PRES    WAVE
                       AIR SEA DIR/SP/G            HT/PER
                 (UTC) (F)     (DEG/KT/KT) (MB)    (FT/S)
DEVILS ISLAND    0200   17     270/ 20/ 23 1020.4R
SAXON HARBOR     0230   17     230/  4/  6 1020.0R
$$

LMZ867-665-643>646-210500-
LAKE MICHIGAN

STATION/POSITION TIME  TEMP    WIND        PRES    WAVE
                       AIR SEA DIR/SP/G            HT/PER
                 (UTC) (F)     (DEG/KT/KT) (MB)    (FT/S)
NORTHPORT PIER   0240   32                 1016.6R
KEWAUNEE LAKESHO 0324   30     290/ 10/ 17 1017.9
SHEBOYGAN LAKESH 0200   33     290/ 10/ 13 1017.9R
PORT WASHINGTON  0240   33     300/  6/ 14 1019.3R
MILWAUKEE LAKESH 0330   33     320/ 10/ 14   N/A
KENOSHA   LAKESH 0200   36     280/  3/ 10 1017.6
$$

TC  - TEMPERATURE IN CELSIUS
VSB - VISIBILITY IN STATUTE MILES
WCI - WIND CHILL INDEX
HX  - HEAT INDEX





USA.gov is the U.S. government's official web portal to all federal, state and local government web resources and services.